Regional Weather Roundup
Issued by NWS Goodland, KS

Home | Current Version | Previous Version | Graphics & Text | Print | Product List | Glossary On
Versions: 1 2 3 4 5 6 7 8 9 10 11 12 13 14 15 16 17 18 19 20 21 22 23 24 25 26 27 28 29 30 31 32 33 34 35 36 37 38 39 40 41 42 43 44 45 46 47 48 49 50
000
ASUS43 KGLD 181759
RWRGLD

GOODLAND FORECAST AREA HOURLY WEATHER ROUNDUP
NATIONAL WEATHER SERVICE GOODLAND KS
1200 PM MDT FRI AUG 18 2017

...OFFICIAL OBSERVATIONS...

CITY           SKY/WX    TMP DP  RH WIND       PRES   REMARKS
GOODLAND KS    SUNNY     82  57  42 N14       30.10R
HILL CITY KS   SUNNY     84  66  54 NW8       30.01S
IMPERIAL NEB   SUNNY     83  51  33 NW10      30.09S
MCCOOK NEB     SUNNY     83  61  47 N8        30.03F
AKRON CO       SUNNY     78  46  32 VRB3      30.18F
BURLINGTON CO  SUNNY     82  55  39 N14       30.14S
LIMON CO       SUNNY     79  48  33 NE3       30.22F
$$

...UNOFFICIAL OBSERVATIONS...

CITY           SKY/WX    TMP DP  RH WIND       PRES   REMARKS
LENORA KS        N/A     79  32  18 CALM        N/A
NORTON KS      SUNNY     81  55  41 NW8       30.01F
SHARON SPRINGS   N/A     82  63  52 CALM        N/A
TRENTON NEB      N/A     81  32  17 N5          N/A
KIT CARSON CO    N/A     83  54  36 MISG        N/A
YUMA CO        FAIR      79  36  21 NE7       30.15S
$$



USA.gov is the U.S. government's official web portal to all federal, state and local government web resources and services.